カタログに戻る

STARLINK-37817

運用中通信SSO
NORAD 69480·PAYLOAD·🇺🇸 United States

打ち上げ Jun 11, 2026 から Vandenberg Space Force Base

Loading…

次のパス (今後24時間)

TLE

最新Source: CelesTrak SupGP

元期: Sep 14, 2026, 22:53 UTC

1 69480C 26131C   26257.95395833  .00043799  00000+0  13596-2 0  2571
2 69480  97.2830 278.8449 0001544  87.0438 279.0135 15.33416898    10

AllMySatでSTARLINK-37817をリアルタイム追跡

Download on the App Store